Find Starlink 32587

NORAD ID: 62180 Int'l Des: 2024-225 Owner: SPXS Country: US Constellation: starlink operational
LEOCIRCULAR

現在のビュー

3D地球を読み込み中...

About Starlink 32587

Starlink 32587 (NORAD 62180) is a starlink constellation satellite (v2 mini) launched Nov 30, 2024 by SPXS of US. It operates in LEO, CIRCULAR orbit with a mass of 730.00 kg.

次回通過

Passes for default location (London). Set your location on the main map for personalized predictions.

高度履歴

Loading altitude history...

軌道要素

1 62180U 24225T 26264.07106808 .00008366 00000-0 70789-3 0 9999
2 62180 70.0034 31.6457 0002994 250.9746 109.1089 14.98342342 99147
Epoch: Sep 21, 2026 • Age: 18 hours

現在のステータス

高度 575.3 km
遠地点 / 近地点 N/A
速度 7.57 km/s
衛星直下点 -1.88°S, 98.62°E
打ち上げ日 Nov 30, 2024
運用期間 1.8 years
タイプ internet

技術仕様

分類 Payload
質量 730.00 kg
乾燥質量 700.00 kg
長さ 0.30 m
スパン 29.00 m
形状 ? Box + pan
製造者 SPXS
バスタイプ Starlink V2M
フェーズステータス In Orbit
所有者/国 SPXS/US

Most Searched